Starlink 3853

operational
NORAD ID: 52359 Int'l Des: 2022-045 Owner: SPXS Country: US Constellation: starlink
LEOCIRCULAR

Über Starlink 3853

Beschreibung wird geladen...

Live-Position

3D-Globus wird geladen...

Nächste Überflüge

Höhenverlauf

Altitude vs Time

uPlot chart will show altitude changes over time

Zweizeiliger Elementsatz

1 52359U 22045AE 25352.86596833 .00001642 00000-0 12120-3 0 9994
2 52359 53.2161 201.9608 0001552 86.7446 273.3724 15.08847432203586
Epoch: 18. Dez. 2025 • Age: 6 hours

Aktueller Status

Höhe 556.8 km
Geschwindigkeit 7.58 km/s
Subsatellitenpunkt -47.04°S, 17.1°E
Startdatum 29. Apr. 2022
Alter 3.6 years
Typ internet

Technische Details

Klassifizierung Payload
Masse 297.00 kg
Trockenmasse 275.00 kg
Gesamtmasse 297.00 kg
Länge 0.20 m
Durchmesser 2.80 m
Spannweite 9.00 m
Form Box + pan
Hersteller SPXS
Bus-Typ Starlink
Phasenstatus In Orbit
Besitzer/Staat SPXS/US

Große Konstellationen

Loading constellations...